FW7330 Weather Reports


time (UTC)temp
F
wind
direction
speed
knots
gust
knots
rain 1hr
in
rain 24hr
in
rain mn
in
humidity
%
barometer
mb
20260503223803 63 110 0.9 1.7 0.03 0.03 0.03 96 1019.5
20260503222613 62 267 0.9 0.9 0.01 0.01 0.01 96 1019.5
20260503221421 62 225 0.9 1.7 0.00 0.00 0.00 96 1019.6
20260503220231 62 250 0.0 0.9 0.00 0.00 0.00 96 1019.2
20260503214938 62 248 0.0 0.9 0.00 0.00 0.00 96 1019.0
20260503213749 62 219 0.9 1.7 0.00 0.00 0.00 96 1018.9
20260503212702 62 0.0 0.9 0.00 0.00 0.00 96 1018.5
20260503211409 62 238 0.9 0.9 0.00 0.00 0.00 96 1018.6
20260503210219 62 236 0.0 0.9 0.00 0.00 0.00 96 1018.7
20260503205005 61 0.0 0.9 0.00 0.00 0.00 96 1018.3
20260503203816 61 237 0.9 0.9 0.00 0.00 0.00 96 1018.5
20260503202649 61 236 0.0 0.9 0.00 0.00 0.00 96 1018.4
20260503201436 61 0.0 0.9 0.00 0.00 0.00 95 1018.3
20260503200205 61 0.0 0.0 0.00 0.00 0.00 95 1018.2
20260503195015 61 237 0.0 0.9 0.00 0.00 0.00 95 1018.3
20260503193722 61 0.0 0.0 0.00 0.00 0.00 95 1018.4
20260503192716 62 0.0 0.9 0.00 0.00 0.00 95 1018.4
20260503191446 62 206 0.9 1.7 0.00 0.00 0.00 96 1018.4
20260503190151 62 132 0.0 0.9 0.00 0.00 0.00 96 1018.4
20260503185100 62 170 0.9 1.7 0.00 0.00 0.00 96 1018.5
20260503183811 61 148 0.0 0.9 0.00 0.00 0.00 96 1018.5
20260503182620 61 0.0 0.0 0.00 0.00 0.00 96 1018.6
20260503181429 61 0.0 0.9 0.00 0.00 0.00 96 1018.5
20260503180319 61 175 0.0 0.9 0.00 0.00 0.00 96 1018.6
20260503174944 61 188 0.9 1.7 0.00 0.00 0.00 96 1018.5
20260503173831 60 119 0.9 1.7 0.00 0.00 0.00 96 1018.4
20260503172601 60 141 1.7 2.6 0.00 0.00 0.00 96 1018.5
20260503171409 59 146 0.9 0.9 0.00 0.00 0.00 96 1018.7
20260503170217 60 181 0.0 0.9 0.00 0.00 0.00 96 1018.7
20260503150149 61 88 0.9 1.7 0.00 0.00 0.00 95 1019.7
20260503140228 61 173 0.9 0.9 0.00 0.00 0.00 95 1020.2
20260503131404 61 162 0.0 0.9 0.00 0.00 0.00 95 1020.6
20260503130214 61 173 0.0 0.9 0.00 0.00 0.00 95 1020.6
20260503120156 61 152 0.9 1.7 0.00 0.00 0.00 95 1021.4
20260503110245 61 0.0 0.9 0.00 0.00 0.00 94 1021.2
20260503100216 62 0.0 0.0 0.00 0.00 0.00 92 1021.1
20260503090240 66 0.0 0.0 0.00 0.00 0.00 88 1021.2
20260503081439 69 306 1.7 3.5 0.00 0.00 0.00 84 1020.9
20260503080249 69 335 3.5 6.1 0.00 0.00 0.00 83 1020.8
20260503072513 70 332 5.2 7.0 0.00 0.00 0.00 81 1020.7
20260503071425 71 337 2.6 6.1 0.00 0.00 0.00 79 1020.7
20260503070234 71 326 5.2 8.7 0.00 0.00 0.00 78 1020.6
20260503060221 73 349 4.3 9.6 0.00 0.00 0.00 72 1020.9
20260503055111 73 334 2.6 8.7 0.00 0.00 0.00 72 1020.9
20260503053738 74 356 4.3 8.7 0.00 0.00 0.00 72 1021.0
20260503052547 74 24 5.2 12.2 0.00 0.00 0.00 71 1021.1
20260503051501 75 350 6.1 11.3 0.00 0.00 0.00 70 1021.1
20260503050208 73 47 3.5 9.6 0.00 0.00 0.00 72 1021.1
20260503045056 73 344 2.6 11.3 0.00 0.00 0.00 71 1021.2
20260503043827 73 356 2.6 7.8 0.00 0.00 0.00 70 1021.3
20260503042533 73 10 2.6 8.7 0.00 0.00 0.00 69 1021.3
20260503041424 74 78 4.3 11.3 0.00 0.00 0.00 69 1021.3
20260503040257 74 326 2.6 5.2 0.00 0.00 0.00 68 1021.4
20260503035044 74 343 4.3 8.7 0.00 0.00 0.00 66 1021.4
20260503033814 73 345 6.1 8.7 0.00 0.00 0.00 67 1021.7
20260503032601 74 319 6.1 12.2 0.00 0.00 0.00 63 1021.9
20260503031331 74 343 4.3 7.8 0.00 0.00 0.00 62 1021.8
20260503030244 75 306 4.3 7.8 0.00 0.00 0.00 60 1022.1
20260503024950 75 287 2.6 3.5 0.00 0.00 0.00 60 1022.3
20260503023759 75 341 6.1 11.3 0.00 0.00 0.00 61 1022.5
20260503021316 76 315 3.5 7.8 0.00 0.00 0.00 56 1022.9
20260503020229 76 321 4.3 12.2 0.00 0.00 0.00 54 1023.1
20260503015039 75 298 3.5 11.3 0.00 0.00 0.00 54 1023.3
20260503013746 75 342 7.0 11.3 0.00 0.00 0.00 53 1023.5
20260503012636 75 300 5.2 13.0 0.00 0.00 0.00 53 1023.7
20260503011406 75 308 5.2 11.3 0.00 0.00 0.00 55 1024.0
20260503010216 75 267 6.1 11.3 0.00 0.00 0.00 55 1024.3
20260503005106 74 311 3.5 9.6 0.00 0.00 0.00 59 1024.5
20260503003813 73 297 2.6 6.1 0.00 0.00 0.00 60 1024.5
20260503002543 73 290 3.5 7.0 0.00 0.00 0.00 62 1024.8
20260503001351 73 293 3.5 7.0 0.00 0.00 0.00 64 1024.8
20260503000203 71 295 4.3 7.8 0.00 0.00 0.00 66 1025.0
20260502235051 71 288 5.2 8.7 0.00 0.00 0.00 67 1025.2
20260502233821 71 284 4.3 6.1 0.00 0.00 0.00 68 1025.1
20260502232527 71 294 4.3 7.8 0.00 0.00 0.00 70 1025.0
20260502231337 70 300 4.3 7.8 0.00 0.00 0.00 71 1025.1
20260502230250 69 270 3.5 7.0 0.00 0.00 0.00 74 1025.2
20260502224957 69 286 3.5 7.8 0.00 0.00 0.00 75 1025.6